Regional Weather Roundup
Issued by NWS

Home | Current Version | Previous Version | Graphics & Text | Print | Product List | Glossary On
Versions: 1 2 3 4 5 6 7 8 9 10 11 12 13 14 15 16 17 18 19 20 21 22 23 24 25 26 27 28 29 30 31 32 33 34 35 36 37 38 39 40 41 42 43 44 45 46 47 48 49 50
000
ASUS43 KDTX 121810
RWRMI
MICHIGAN HOURLY REGIONAL WEATHER ROUNDUP
NATIONAL WEATHER SERVICE DETROIT/PONTIAC MI
ISSUED BY NATIONAL WEATHER SERVICE GRAND RAPIDS MI
100 PM EST TUE DEC 12 2017

NOTE: "FAIR" INDICATES FEW OR NO CLOUDS BELOW 12,000 FEET WITH NO
SIGNIFICANT WEATHER AND/OR OBSTRUCTION TO VISIBILITY.

MIZ047>049-052>055-059>063-066>070-074>076-081>083-121900-
SOUTHEAST LOWER MICHIGAN

CITY           SKY/WX    TMP DP  RH WIND       PRES   REMARKS
ADRIAN         MOSUNNY   20   6  55 NW12G21   29.88F WCI   8
6HR MIN TEMP:  18; 6HR MAX TEMP:  21; 6HR PCP: TRACE;

ALMA           CLOUDY    19   5  53 NW17G25   29.88F WCI   4
6HR MIN TEMP:  16; 6HR MAX TEMP:  19;

ANN ARBOR      MOSUNNY   19   4  51 W17G24    29.84F WCI   4
BAD AXE        CLOUDY    14   2  58 NW20G31   29.79S WCI  -4
6HR MIN TEMP:  13; 6HR MAX TEMP:  17;

DETROIT CITY   MOSUNNY   20   1  43 NW17G30   29.83F WCI   5
6HR MIN TEMP:  18; 6HR MAX TEMP:  21; 6HR PCP: TRACE;

DETROIT        PTSUNNY   20   5  52 NW16G25   29.85F WCI   6
6HR MIN TEMP:  20; 6HR MAX TEMP:  24; 6HR PCP: TRACE;

FLINT          MOSUNNY   16   2  54 NW17G28   29.84F WCI   0
6HR MIN TEMP:  16; 6HR MAX TEMP:  18; 6HR PCP: TRACE;

GROSSE ILE     MOSUNNY   20   7  55 NW16G22   29.84F WCI   6
6HR MIN TEMP:  19; 6HR MAX TEMP:  24;

HILLSDALE      CLOUDY    19   3  49 NW16G24   29.85F WCI   5
HOWELL         SUNNY     18   8  65 NW15G21   29.84F WCI   3
6HR MIN TEMP:  16; 6HR MAX TEMP:  19;


CITY           SKY/WX    TMP DP  RH WIND       PRES   REMARKS
JACKSON        LGT SNOW  17  10  74 NW7       29.87S WCI   8
6HR MIN TEMP:  17; 6HR MAX TEMP:  20; 6HR PCP: TRACE;

LANSING        MOSUNNY   19   6  57 NW20G26   29.88F WCI   3
6HR MIN TEMP:  17; 6HR MAX TEMP:  19;

MASON          PTSUNNY   20   4  50 NW16G23   29.87S WCI   6
6HR MIN TEMP:  18; 6HR MAX TEMP:  20;

MONROE         MOSUNNY   21   1  42 NW13G22   29.85F WCI   9
6HR MIN TEMP:  19; 6HR MAX TEMP:  23;

MT. CLEMENS    MOSUNNY   18  -1  43 NW16G25   29.80S WCI   3
6HR MIN TEMP:  17; 6HR MAX TEMP:  21;

PONTIAC        PTSUNNY   15   2  56 NW23G33   29.80S WCI  -3
6HR MIN TEMP:  15; 6HR MAX TEMP:  19; 6HR PCP: TRACE;

PORT HOPE        N/A     15   5  64 NW23G38   29.76S WCI  -3
6HR MIN TEMP:  14; 6HR MAX TEMP:  20;

PORT HURON     CLOUDY    18   0  45 NW16G26   29.80R WCI   3
TRI CITIES     PTSUNNY   17   4  56 NW22G31   29.86S WCI   0
6HR MIN TEMP:  15; 6HR MAX TEMP:  18;

YPSILANTI      CLOUDY    21   6  52 NW23      29.85F WCI   5
6HR MIN TEMP:  20; 6HR MAX TEMP:  23; 6HR PCP: TRACE;

$$
MIZ043>046-050>051-056>058-064>065-071>073-077>080-121900-
SOUTHWEST LOWER MICHIGAN

CITY           SKY/WX    TMP DP  RH WIND       PRES   REMARKS
BATTLE CREEK   PTSUNNY   20   5  52 NW17G26   29.90F WCI   5
6HR MIN TEMP:  16; 6HR MAX TEMP:  21;

BENTON HARBOR  LGT SNOW  23  16  74 NW9G20    29.97F VSB 3/4 WCI  13
6HR MIN TEMP:  21; 6HR MAX TEMP:  25;

BIG RAPIDS     LGT SNOW  17  10  75 N12       29.87F VSB 1   WCI   4
6HR MIN TEMP:  14; 6HR MAX TEMP:  18;

COLDWATER      MOSUNNY   21   3  44 NW15G22   29.90S WCI   8
6HR MIN TEMP:  17; 6HR MAX TEMP:  22;

HOLLAND        SNOW      18  13  80 N10G20    29.96F VSB 1/2 WCI   6
6HR MIN TEMP:  18; 6HR MAX TEMP:  19; 6HR PCP:  0.10;

GRAND RAPIDS   PTSUNNY   20   7  57 NW16G23   29.91F WCI   6
6HR MIN TEMP:  18; 6HR MAX TEMP:  21;

KALAMAZOO      PTSUNNY   21   9  59 NW14      29.92F WCI   8
6HR MIN TEMP:  19; 6HR MAX TEMP:  21; 6HR PCP: TRACE;

MARSHALL       MOSUNNY   20   2  45 NW14G24   29.89S WCI   7
6HR MIN TEMP:  17; 6HR MAX TEMP:  21;

MOUNT PLEASANT MOSUNNY   19   2  48 NW8G23    29.86F WCI   9
6HR MIN TEMP:  16; 6HR MAX TEMP:  19;

MUSKEGON       LGT SNOW  19  11  70 NW16G24   29.96F VSB 3/4 WCI   4
6HR MIN TEMP:  19; 6HR MAX TEMP:  20; 6HR PCP: TRACE;

STURGIS        CLOUDY    19  12  72 N9G17     29.92S WCI   9
6HR MIN TEMP:  18; 6HR MAX TEMP:  20;

$$
MIZ016>042-121900-
NORTHERN LOWER MICHIGAN

CITY           SKY/WX    TMP DP  RH WIND       PRES   REMARKS
ALPENA         CLOUDY    10   3  73 NW23G30   29.80F BLWGSNOWWCI -10
6HR MIN TEMP:   8; 6HR MAX TEMP:  12; 6HR PCP: TRACE;

BEAVER ISLAND  CLOUDY    14   4  64 N12G20    29.92F WCI   0
6HR MIN TEMP:  12; 6HR MAX TEMP:  15;

BELLAIRE       LGT SNOW  14  11  87 N7        29.91F WCI   4
6HR MIN TEMP:  13; 6HR MAX TEMP:  15;

CADILLAC       CLOUDY    15   4  61 NW9G21    29.83F WCI   3
CHARLEVOIX     LGT SNOW  14   8  75 NW12G24   29.93S WCI   1
6HR MIN TEMP:  14; 6HR MAX TEMP:  16;

GAYLORD        MIX PCPN   8  -2  63 MISG      29.81F
6HR MIN TEMP:   5; 6HR MAX TEMP:   9; 6HR PCP: TRACE;

HOUGHTON LAKE  CLOUDY    14   2  58 NW22G32   29.82F HAZE    WCI  -4
6HR MIN TEMP:  10; 6HR MAX TEMP:  14; 6HR PCP:  0.01;

MANISTEE       LGT SNOW  20   7  57 NW18G25   29.93S WCI   5
OSCODA         MOSUNNY   13  -4  46 NW24G35   29.79S WCI  -7
6HR MIN TEMP:  10; 6HR MAX TEMP:  13;

PELLSTON       CLOUDY    11   1  64 NW18G26   29.89F WCI  -7
6HR MIN TEMP:   9; 6HR MAX TEMP:  12;

TRAVERSE CITY  PTSUNNY   18   3  52 N15G25    29.90F WCI   4
6HR MIN TEMP:  16; 6HR MAX TEMP:  18; 6HR PCP: TRACE;

LUDINGTON      LGT SNOW  19   8  61 N15G25    29.94F WCI   5
6HR MIN TEMP:  17; 6HR MAX TEMP:  19;

$$
MIZ007>008-015-121900-
EASTERN UPPER MICHIGAN

CITY           SKY/WX    TMP DP  RH WIND       PRES   REMARKS
KINROSS        PTSUNNY    5  -2  72 N14G24    29.87F WCI -12
6HR MIN TEMP:  -1; 6HR MAX TEMP:   6;

MACKINAC ISLAN CLOUDY    11   2  67 N10G21    29.87F HAZE    WCI  -2
6HR MIN TEMP:   8; 6HR MAX TEMP:  11;

NEWBERRY       CLOUDY    10   5  81 N13G18    29.89F FOG     WCI  -6
6HR MIN TEMP:   7; 6HR MAX TEMP:  10;

S. S. MARIE    SUNNY      5  -8  55 N8        29.88F WCI  -8
6HR MIN TEMP:   0; 6HR MAX TEMP:   5;

$$
MIZ004>006-011>014-085-121900-
CENTRAL UPPER MICHIGAN

CITY           SKY/WX    TMP DP  RH WIND       PRES   REMARKS
MANISTIQUE     LGT SNOW  12   4  72 N7        29.93F WCI   1
6HR MIN TEMP:   9; 6HR MAX TEMP:  12;

ESCANABA       MOSUNNY   17   1  49 NW16G24   29.97F WCI   2
6HR MIN TEMP:   9; 6HR MAX TEMP:  17; 6HR PCP: TRACE;

MENOMINEE      FLURRIES  16   5  62 N13G20    30.02F WCI   2
6HR MIN TEMP:  12; 6HR MAX TEMP:  16; 6HR PCP: TRACE;

SAWYER-GWINN   PTSUNNY   12   1  62 NW20G26   29.93F WCI  -6
$$
MIZ001>003-009>011-084-121900-
WESTERN UPPER MICHIGAN

CITY           SKY/WX    TMP DP  RH WIND       PRES   REMARKS
IRON MOUNTAIN  CLOUDY    13   4  67 NW13      29.95F WCI  -2
6HR MIN TEMP:  10; 6HR MAX TEMP:  13; 6HR PCP: TRACE;

HOUGHTON       LGT SNOW  12   4  70 N8        29.96F VSB 3/4 WCI   0
6HR MIN TEMP:  10; 6HR MAX TEMP:  13; 6HR PCP:  0.03;

COPPER HARBOR    N/A     14   6  70 NE14G24   29.99F WCI  -1
6HR MIN TEMP:  13; 6HR MAX TEMP:  15; 6HR PCP:  0.02;

IRONWOOD       LGT SNOW  11   4  73 W12       30.02F WCI  -3
6HR MIN TEMP:   7; 6HR MAX TEMP:  11;

$$

ABBREVIATIONS USED IN REMARKS
   TC - TEMPERATURE IN CELSIUS
  WCI - WIND CHILL INDEX
   HX - HEAT INDEX
  VSB - VISIBILITY





USA.gov is the U.S. government's official web portal to all federal, state and local government web resources and services.